Torna al catalogo

GP-B

AttivoScienzaPO
NORAD 28230·PAYLOAD·🇺🇸 United States

Lanciato Apr 20, 2004 da Vandenberg Space Force Base

Loading…

Prossimi Passaggi (prossime 24 ore)

TLE

AggiornatoSource: Space-Track

Epoca: Sep 14, 2026, 09:59 UTC

1 28230U 04014A   26257.41643996  .00000602  00000-0  71413-4 0  9996
2 28230  89.8512  48.4906 0002260  75.6809 284.4667 14.83374400665576

Traccia GP-B in tempo reale con AllMySat

Download on the App Store